DateTimeUTC,F1_A11,F1_S11,BsB_S11,BsG_S11,BsR_S11,BbsB_S11,BbsG_S11,BbsR_S11,BaB_A11,BaG_A11,BaR_A11,Tu_S11,T_S11,Uu_S11,U_S11,P_S11,T1_A11
2021-09-29T00:00:00Z,00000200,21000000,,,,,,,0000.11,0000.16,0000.11,16.3,23.4,,00.0,0671.5,30.9
2021-09-29T00:01:00Z,00000200,21000000,,,,,,,-000.09,0000.27,-000.14,16.3,23.4,,00.0,0671.5,30.9
2021-09-29T00:02:00Z,00000200,21000000,,,,,,,0000.29,-000.02,0000.49,16.4,23.5,,00.0,0671.5,30.9
2021-09-29T00:03:00Z,00000200,61000000,,,,,,,0000.49,0000.28,0000.41,16.4,23.5,,00.0,0671.5,30.9
2021-09-29T00:04:00Z,00000200,41000000,0001.59,0001.28,0000.69,-000.20,0000.09,-000.00,0000.12,0000.45,-000.06,16.8,23.4,,00.0,0672.4,30.9
2021-09-29T00:05:00Z,00000200,01000000,0002.09,0001.19,0000.80,0000.32,0000.28,0000.31,0000.47,0000.01,0000.30,16.8,23.4,,00.0,0672.5,30.9
2021-09-29T00:06:00Z,00000200,01000000,0000.99,0001.32,0001.01,-000.36,0000.06,-000.09,0000.24,0000.35,0000.03,16.9,23.3,,00.0,0672.5,30.9
2021-09-29T00:07:00Z,00000200,01000000,0001.14,0001.31,0000.66,-000.71,0000.14,-000.09,0000.33,0000.29,0000.14,16.8,23.3,,00.0,0672.4,30.9
2021-09-29T00:08:00Z,00000200,01000000,0000.92,0000.88,0000.78,0000.52,0000.08,0000.02,0000.27,0000.46,0000.13,16.7,23.3,,00.0,0672.4,30.9
2021-09-29T00:09:00Z,00000200,01000000,0002.02,0000.93,0000.83,-000.09,0000.17,-000.03,0000.28,-000.06,0000.38,16.6,23.2,,00.0,0672.4,30.9
2021-09-29T00:10:00Z,00000200,01000000,0001.85,0001.30,0000.62,-000.12,-000.22,0000.22,0000.62,0000.42,0000.33,16.6,23.2,,00.0,0672.4,30.8
2021-09-29T00:11:00Z,00000200,01000000,0002.30,0001.21,0000.99,0000.59,0000.25,0000.24,0000.61,0000.64,0000.30,16.5,23.1,,00.0,0672.4,30.8
2021-09-29T00:12:00Z,00000200,01000000,0001.43,0000.90,0000.73,-000.03,0000.38,0000.06,0000.14,0000.35,0000.03,16.6,23.1,,00.0,0672.4,30.8
2021-09-29T00:13:00Z,00000200,01000000,0001.76,0000.98,0001.04,0000.18,0000.20,0000.46,0000.53,0000.22,0000.54,16.6,23.1,,00.0,0672.4,30.9
2021-09-29T00:14:00Z,00000200,01000000,0001.86,0001.41,0000.96,0000.27,0000.05,0000.21,0000.31,0000.53,0000.32,16.6,23.2,,00.0,0672.4,30.9
2021-09-29T00:15:00Z,00000200,01000000,0001.60,0001.12,0000.54,0000.53,0000.02,0000.13,0000.72,0000.48,0000.33,16.7,23.2,,00.0,0672.4,30.9
2021-09-29T00:16:00Z,00000200,01000000,0001.07,0001.28,0000.83,-000.37,0000.14,0000.22,0000.16,0000.50,0000.49,16.7,23.2,,00.0,0672.4,30.9
2021-09-29T00:17:00Z,00000200,01000000,0001.12,0000.96,0000.55,-000.14,-000.18,0000.16,0000.52,0000.38,0000.35,16.8,23.2,,00.0,0672.5,30.9
2021-09-29T00:18:00Z,00000200,01000000,0001.97,0001.37,0000.60,0000.54,0000.15,0000.08,0000.41,0000.09,0000.20,16.8,23.2,,00.0,0672.5,30.9
2021-09-29T00:19:00Z,00000200,01000000,0001.82,0001.28,0000.57,0000.01,0000.27,-000.01,0000.38,0000.86,0000.30,16.9,23.3,,00.0,0672.5,30.9
2021-09-29T00:20:00Z,00000200,01000000,0002.40,0001.12,0000.76,-000.28,0000.32,0000.20,0000.30,-000.10,0000.37,16.9,23.3,,00.0,0672.5,30.9
2021-09-29T00:21:00Z,00000200,01000000,0002.22,0001.07,0000.73,0000.09,0000.01,0000.14,0000.22,0000.48,-000.03,17.0,23.3,,00.0,0672.5,30.9
2021-09-29T00:22:00Z,00000200,01000000,0001.23,0001.13,0000.48,0000.24,0000.17,0000.04,0000.30,0000.25,0000.34,17.0,23.3,,00.0,0672.5,30.9
2021-09-29T00:23:00Z,00000200,01000000,0001.69,0001.05,0000.70,0000.60,0000.40,0000.18,0000.54,0000.32,0000.48,17.0,23.4,,00.0,0672.5,30.9
2021-09-29T00:24:00Z,00000200,01000000,0001.38,0001.21,0000.68,0001.11,-000.05,0000.24,0000.42,0000.05,-000.00,17.0,23.3,,00.0,0672.5,30.9
2021-09-29T00:25:00Z,00000200,01000000,0001.61,0001.19,0000.73,0000.20,0000.10,0000.30,0000.26,0000.49,0000.09,16.9,23.3,,00.0,0672.5,30.9
2021-09-29T00:26:00Z,00000200,01000000,0001.10,0001.48,0000.80,0000.36,0000.41,0000.30,0000.31,0000.36,0000.42,16.9,23.3,,00.0,0672.5,30.9
2021-09-29T00:27:00Z,00000200,01000000,0001.66,0001.25,0000.64,0000.50,0000.05,0000.16,0000.71,0000.60,0000.17,16.9,23.3,,00.0,0672.4,30.9
2021-09-29T00:28:00Z,00000200,01000000,0001.67,0000.85,0000.63,-000.15,0000.08,0000.20,0000.19,0000.01,0000.25,16.9,23.3,,00.0,0672.4,30.9
2021-09-29T00:29:00Z,00000200,01000000,0001.50,0001.66,0000.62,-000.21,0000.03,0000.20,0000.21,0000.30,0000.24,17.0,23.3,,00.0,0672.4,30.9
2021-09-29T00:30:00Z,00000200,01000000,0001.40,0000.92,0000.64,-000.06,-000.20,0000.45,0000.46,0000.49,0000.34,17.0,23.3,,00.0,0672.5,30.9
2021-09-29T00:31:00Z,00000200,01000000,0001.43,0001.07,0000.67,-000.28,0000.08,0000.04,0000.47,0000.42,0000.15,17.1,23.4,,00.0,0672.5,30.9
2021-09-29T00:32:00Z,00000200,01000000,0001.89,0001.03,0000.82,-000.05,0000.25,0000.01,0000.34,0000.25,0000.32,17.1,23.4,,00.0,0672.5,30.9
2021-09-29T00:33:00Z,00000200,01000000,0000.77,0001.27,0000.48,0000.24,-000.11,0000.17,0000.42,0000.36,0000.31,17.1,23.4,,00.0,0672.5,30.9
2021-09-29T00:34:00Z,00000200,01000000,0001.33,0001.10,0000.52,0000.10,0000.19,0000.22,0000.18,0000.33,0000.20,17.2,23.4,,00.0,0672.5,30.9
2021-09-29T00:35:00Z,00000200,01000000,0002.31,0000.89,0000.50,-000.25,0000.27,0000.23,0000.61,0000.36,0000.22,17.2,23.5,,00.0,0672.4,30.9
2021-09-29T00:36:00Z,00000200,01000000,0001.64,0001.06,0000.69,0000.30,0000.21,0000.18,0000.21,0000.34,0000.26,17.2,23.5,,00.0,0672.4,30.9
2021-09-29T00:37:00Z,00000200,01000000,0001.44,0000.82,0001.11,0000.42,-000.12,0000.49,0000.04,-000.03,-000.02,17.1,23.4,,00.0,0672.4,30.9
2021-09-29T00:38:00Z,00000200,01000000,0001.55,0000.79,0000.86,0000.28,0000.33,0000.19,0000.22,0000.14,0000.43,17.0,23.4,,00.0,0672.4,30.9
2021-09-29T00:39:00Z,00000200,01000000,0001.03,0001.21,0000.73,0000.21,0000.05,0000.06,0000.52,0000.20,-000.03,16.9,23.4,,00.0,0672.3,30.9
2021-09-29T00:40:00Z,00000200,01000000,0001.16,0001.23,0000.43,0000.12,-000.13,0000.27,0000.26,0000.56,0000.50,16.8,23.3,,00.0,0672.4,30.9
2021-09-29T00:41:00Z,00000200,01000000,0001.48,0001.31,0000.55,-000.29,0000.17,-000.09,0000.36,0000.20,0000.00,16.8,23.3,,00.0,0672.4,30.9
2021-09-29T00:42:00Z,00000200,01000000,0001.56,0001.23,0000.61,0000.11,0000.01,0000.37,0000.55,0000.76,0000.26,16.8,23.3,,00.0,0672.4,30.9
2021-09-29T00:43:00Z,00000200,01000000,0000.94,0001.04,0000.54,-000.13,0000.26,0000.42,0000.26,-000.03,0000.35,16.9,23.3,,00.0,0672.4,30.9
2021-09-29T00:44:00Z,00000200,01000000,0001.48,0001.43,0000.73,0000.35,0000.18,0000.08,0000.40,0000.59,0000.23,16.9,23.3,,00.0,0672.4,30.9
2021-09-29T00:45:00Z,00000200,01000000,0001.79,0000.91,0000.62,-000.40,-000.10,0000.40,0000.26,-000.18,0000.27,17.0,23.3,,00.0,0672.4,30.9
2021-09-29T00:46:00Z,00000200,01000000,0002.28,0001.35,0000.86,-000.07,-000.08,0000.23,0000.51,0000.71,0000.26,17.0,23.4,,00.0,0672.3,30.9
2021-09-29T00:47:00Z,00000200,01000000,0000.55,0001.52,0000.67,-000.20,0000.20,0000.05,0000.29,0000.34,0000.39,17.1,23.4,,00.0,0672.3,30.9
2021-09-29T00:48:00Z,00000200,01000000,0001.53,0001.30,0000.91,-000.15,0000.06,0000.12,0000.30,0000.63,0000.08,17.1,23.4,,00.0,0672.3,30.9
2021-09-29T00:49:00Z,00000200,01000000,0001.74,0001.18,0000.81,-000.01,0000.01,0000.40,0000.43,-000.03,0000.45,17.1,23.4,,00.0,0672.4,30.9
2021-09-29T00:50:00Z,00000200,01000000,0001.20,0001.50,0000.63,0000.18,-000.04,0000.16,0000.37,0000.07,-000.18,17.1,23.4,,00.0,0672.4,30.9
2021-09-29T00:51:00Z,00000200,01000000,0001.20,0001.32,0000.61,-000.51,0000.02,0000.30,-000.09,0000.49,0000.17,17.0,23.4,,00.0,0672.4,30.9
2021-09-29T00:52:00Z,00000200,01000000,0001.02,0001.07,0000.82,-000.10,0000.21,0000.43,0000.33,-000.20,0000.14,17.0,23.4,,00.0,0672.3,30.9
2021-09-29T00:53:00Z,00000200,01000000,0001.96,0001.15,0000.83,0000.40,-000.02,0000.33,0000.24,0000.47,0000.36,16.9,23.3,,00.0,0672.3,30.9
2021-09-29T00:54:00Z,00000200,01000000,0001.51,0001.19,0000.75,0000.05,0000.08,0000.20,0000.27,0000.13,0000.04,16.8,23.3,,00.0,0672.3,30.9
2021-09-29T00:55:00Z,00000200,01000000,0001.10,0001.10,0000.57,0000.33,0000.03,0000.35,0000.59,0000.52,0000.37,16.7,23.2,,00.0,0672.3,30.8
2021-09-29T00:56:00Z,00000200,01000000,0001.41,0001.32,0000.72,0000.46,0000.24,0000.22,0000.25,0000.65,0000.44,16.7,23.2,,00.0,0672.3,30.8
2021-09-29T00:57:00Z,00000200,41000000,,,,,,,0000.42,-000.26,0000.27,16.7,23.2,,00.0,0672.1,30.9
2021-09-29T00:58:00Z,00000200,61000000,,,,,,,-000.20,0000.17,-000.18,16.5,23.4,,00.0,0671.3,30.9
2021-09-29T00:59:00Z,00000200,21000000,,,,,,,0000.06,0000.02,-000.06,16.5,23.5,,00.0,0671.3,30.9
